Wind_Speed
42 40 39 38 37 36 34 34 29 27 28 24 25 26 28 27 24 25 20 18 17 16 15 14 12 10 11 14 20 25 27 24 22 19 17 15 14 12 12 11 11 10 10 8 7 6 5 4 3
45 44 43 42 40 37 33 40 33 32 27 29 29 29 31 26 26 27 26 23 21 20 19 19 17 15 13 12 12 14 21 25 25 24 21 20 18 17 14 13 13 13 12 12 10 9 8 8 6
47 46 45 44 41 38 41 43 38 30 31 32 31 32 33 27 29 28 29 27 26 24 23 22 20 18 16 14 13 11 11 13 21 26 27 25 21 20 19 16 15 16 15 14 13 13 12 11 10
46 45 45 44 41 44 44 44 33 32 35 34 34 34 32 31 30 31 31 30 28 29 27 26 24 21 19 17 17 17 16 14 14 16 23 28 28 26 22 21 19 18 19 18 16 15 15 14 14
43 44 44 42 39 47 44 41 39 37 36 37 37 35 33 33 32 33 35 33 32 31 30 29 27 26 23 21 21 20 20 18 17 16 16 20 24 26 27 25 21 21 22 22 20 18 17 16 16
35 36 37 38 40 47 41 42 41 39 38 37 38 36 34 35 34 33 35 37 36 35 33 32 30 30 28 25 24 24 23 22 21 19 18 18 19 21 24 26 27 24 22 23 23 22 21 20 18
28 28 29 33 41 39 39 38 41 40 39 38 36 38 35 36 35 35 36 37 37 37 36 35 34 33 32 29 29 27 27 26 25 23 22 20 21 20 21 25 27 28 25 25 25 25 24 23 23
26 26 24 24 28 26 26 32 34 38 40 35 37 41 38 33 37 37 37 37 38 38 37 37 37 36 36 35 34 32 31 31 30 29 27 24 22 21 22 24 25 28 28 27 27 29 28 26 24
29 28 26 28 26 21 22 23 26 28 31 32 34 37 36 35 38 37 38 39 39 40 39 38 37 38 37 37 37 36 35 33 32 32 32 28 26 25 25 24 27 27 28 28 29 30 30 29 27
31 30 29 27 27 27 26 25 23 22 22 23 23 26 27 29 30 35 38 40 41 42 42 42 41 40 39 39 35 38 39 37 37 35 33 34 32 31 28 25 28 26 28 29 31 31 31 31 31
33 34 30 30 31 30 30 30 28 27 27 24 25 26 26 27 27 27 27 29 34 39 43 44 44 44 43 42 41 40 39 39 39 41 39 36 36 33 34 29 28 28 29 28 31 34 35 33 34
34 34 35 34 33 34 33 33 33 33 33 31 32 33 33 32 32 31 31 32 31 31 33 36 40 44 46 45 44 44 43 42 42 41 43 41 40 37 37 36 32 29 30 31 30 31 32 34 35
35 33 34 34 34 35 36 36 36 36 37 37 36 36 36 36 36 36 37 37 37 37 39 38 38 38 40 42 44 46 46 44 44 43 43 43 43 41 39 39 36 34 33 32 33 33 32 32 33
34 33 33 33 35 35 35 35 37 36 37 39 38 37 38 39 40 40 41 41 42 42 43 43 43 43 43 43 43 44 44 45 47 45 45 46 47 47 47 43 40 36 36 37 36 36 36 35 35
37 36 35 35 35 36 37 37 38 36 38 38 40 41 42 44 45 47 48 47 48 48 49 49 49 49 47 46 47 48 47 45 43 45 47 48 48 49 50 47 44 43 41 39 38 37 38 38 37
37 38 37 36 37 37 39 38 43 40 42 43 43 45 47 48 48 50 51 51 51 52 53 53 53 53 53 52 51 50 49 48 48 46 44 46 48 49 51 52 48 48 46 44 43 42 39 40 39
37 38 40 39 39 40 42 42 44 47 45 47 47 48 49 50 51 52 53 55 55 56 56 57 58 57 58 58 57 57 56 53 52 51 47 49 46 48 50 52 52 52 50 48 47 44 44 43 41
39 40 39 41 40 43 43 44 44 45 48 47 47 49 51 53 55 55 56 57 59 59 61 62 63 64 64 63 63 63 62 61 59 56 53 50 48 46 46 49 52 54 55 52 48 47 46 47 46
38 38 41 42 45 41 42 45 42 43 44 46 48 49 49 53 55 58 57 58 60 63 65 66 66 66 68 68 66 65 64 62 63 61 59 56 53 49 51 47 47 51 57 57 56 54 53 50 50
32 33 33 32 33 35 35 37 38 40 40 42 44 47 50 52 54 58 61 63 66 68 69 70 72 72 73 71 71 69 68 65 65 65 63 60 58 57 56 54 55 55 57 61 58 58 56 55 51
25 25 24 26 27 30 29 30 32 33 35 38 42 47 50 53 55 58 61 64 68 71 74 76 79 81 82 81 79 77 75 71 68 66 65 63 63 62 62 61 59 56 56 59 62 60 58 57 56
18 18 19 22 23 25 27 30 30 35 38 42 45 47 48 50 50 48 49 47 49 48 50 51 58 66 73 80 83 83 81 77 73 69 68 66 67 66 67 63 63 61 57 58 60 61 59 58 57
12 14 16 18 21 23 26 32 33 34 37 41 41 39 39 37 43 45 47 50 53 58 59 55 56 59 55 65 69 67 69 68 67 68 68 69 69 68 68 66 65 62 59 56 58 60 59 57 57
11 14 16 20 24 28 31 33 31 30 28 30 33 35 38 37 39 41 44 49 54 54 56 54 51 51 53 54 54 52 53 54 57 57 61 61 65 68 65 64 61 60 59 57 56 56 57 57 54
16 21 25 27 27 27 24 24 17 19 22 23 23 28 27 26 29 35 39 34 34 30 29 35 41 45 40 42 43 42 42 45 49 54 56 57 56 55 57 60 56 55 54 52 51 52 53 55 53
18 17 18 18 15 12 10 11 10 10 13 14 10 10 18 25 22 22 27 22 28 28 25 33 29 34 31 35 41 41 39 39 40 44 51 53 52 52 55 56 52 52 49 51 50 49 50 52 51
10 9 9 9 8 5 2 4 7 8 9 12 17 19 19 17 17 21 24 23 26 32 30 30 20 20 25 27 24 35 38 39 37 35 38 46 54 52 52 52 49 49 48 50 48 47 48 51 52
5 5 4 2 3 2 2 5 6 11 14 16 17 20 19 23 16 21 28 23 17 21 22 26 19 8 23 24 23 24 25 30 35 36 35 35 42 49 46 47 49 47 46 45 44 44 45 45 47
3 3 1 1 2 2 3 4 7 10 15 20 22 32 31 26 20 17 21 18 21 19 26 27 30 28 16 2 14 18 18 17 21 26 28 26 33 38 40 41 39 39 40 41 39 38 34 34 40
5 2 1 0 3 4 7 8 11 11 16 21 27 28 26 27 32 26 23 17 21 23 21 20 19 20 22 13 7 3 2 7 10 15 19 21 25 29 31 31 30 31 29 27 23 24 25 31 34
Wind_Direction
244 246 247 248 250 252 252 254 250 248 247 250 250 253 255 255 261 269 276 268 269 266 264 265 264 274 275 270 262 255 256 259 259 260 258 260 263 263 268 258 257 261 262 255 246 244 234 248 275
241 243 245 247 248 250 253 251 249 244 249 248 247 248 254 255 260 262 265 265 267 271 269 266 267 270 271 272 275 267 259 258 261 263 262 264 262 263 259 262 260 259 259 258 256 252 249 241 248
240 240 242 244 246 247 247 251 246 248 247 246 246 248 253 254 255 256 259 262 265 267 269 270 270 268 266 265 266 267 265 264 261 261 264 264 264 266 266 263 261 261 259 259 257 257 254 251 246
238 240 241 240 243 247 247 251 251 246 246 248 247 247 250 255 253 255 257 258 260 264 266 269 270 270 263 259 262 267 268 267 264 260 257 260 265 268 270 269 263 261 261 258 257 258 258 256 253
234 237 240 241 241 243 246 250 250 246 245 246 249 247 248 249 251 253 257 257 258 258 260 263 266 266 267 268 265 263 265 269 272 272 269 258 254 259 265 269 269 264 261 259 258 256 258 257 257
229 231 234 237 239 243 242 246 249 249 246 245 247 249 248 250 250 250 253 256 255 255 256 258 259 262 263 264 266 268 266 265 267 270 274 275 268 258 256 260 264 266 262 257 257 258 258 259 259
215 218 221 223 232 239 241 245 246 249 250 247 248 248 246 248 250 252 251 253 255 255 255 256 256 259 261 261 263 265 266 266 265 265 269 271 272 270 264 261 262 261 260 260 262 260 260 258 260
222 221 220 223 232 232 238 241 246 247 250 251 248 249 248 250 248 250 254 256 258 258 257 256 257 259 258 261 262 262 263 264 265 269 264 264 266 269 271 268 261 262 261 258 259 262 263 264 264
226 223 226 227 232 235 243 241 243 246 249 250 249 250 251 247 253 252 253 254 256 259 260 259 258 257 259 260 259 262 261 259 263 263 265 266 263 264 265 265 263 260 262 264 264 261 262 264 267
228 231 230 234 241 241 245 243 244 247 250 247 247 250 250 252 251 254 253 254 256 257 260 261 262 262 260 259 258 258 259 259 261 262 264 264 264 265 265 265 264 261 258 257 259 265 265 265 265
229 234 237 240 241 243 244 244 243 247 250 248 251 249 253 256 256 256 257 256 257 258 260 261 260 261 263 263 261 257 258 256 256 260 261 263 264 263 266 267 267 264 260 256 257 259 262 265 265
233 236 238 240 245 248 248 247 245 248 251 249 254 255 258 259 260 257 257 259 258 257 257 258 261 261 261 262 263 263 261 260 258 256 258 260 262 261 264 268 269 266 263 262 259 259 259 261 265
233 233 237 240 244 247 251 252 251 254 252 254 253 256 258 259 258 259 259 258 258 258 259 258 259 261 262 263 263 263 263 261 260 259 257 257 257 260 262 266 269 268 265 262 264 264 263 262 263
235 234 236 239 242 246 251 255 253 255 255 255 256 257 259 260 261 260 260 260 260 260 258 258 260 260 259 261 262 262 262 261 261 258 260 259 257 257 260 264 266 264 265 268 265 265 267 268 267
236 238 240 243 245 249 254 257 257 258 259 258 260 260 260 262 264 264 265 264 263 260 260 260 259 258 259 259 259 261 261 262 259 260 259 259 259 259 260 260 263 264 265 268 267 267 266 265 265
240 242 244 245 249 251 254 258 261 262 263 263 263 263 263 263 263 264 265 266 265 265 264 262 260 260 258 256 256 257 258 258 261 261 260 260 259 260 260 263 263 261 262 266 268 267 265 265 265
241 246 250 251 253 256 259 259 261 263 263 265 266 266 265 266 268 268 269 268 267 266 264 264 262 260 259 257 256 254 254 256 256 258 257 261 262 261 260 261 262 265 265 263 264 266 263 265 263
242 248 252 256 255 259 260 261 265 266 266 268 269 271 273 273 272 270 269 270 269 267 265 263 264 263 261 258 257 255 254 255 255 255 256 257 259 256 259 259 261 261 263 263 262 261 262 263 265
244 246 253 256 260 261 263 266 267 268 272 273 274 275 273 272 271 272 273 273 272 271 269 267 264 262 261 261 259 257 255 253 253 253 254 254 256 255 259 258 256 258 261 263 263 263 263 264 265
242 247 252 259 262 263 264 267 267 270 271 272 274 274 276 276 276 278 278 277 275 273 271 269 268 265 263 260 258 257 255 254 254 254 253 253 253 257 257 259 260 261 262 263 264 264 264 265 266
237 245 252 257 262 267 266 266 270 272 274 276 277 278 280 281 280 280 279 278 276 273 270 267 264 263 261 260 257 256 255 253 253 254 255 255 254 255 257 259 261 263 262 262 264 265 265 265 265
236 243 252 259 264 268 270 271 276 279 281 281 281 283 283 281 281 280 278 277 280 277 276 274 272 266 264 259 255 253 253 252 251 251 251 253 253 253 255 257 260 261 261 262 262 264 266 266 267
238 249 251 256 260 265 274 283 288 284 279 281 284 286 285 279 282 277 281 286 283 280 274 272 273 276 278 262 257 254 253 251 250 250 250 249 248 251 254 254 254 256 259 258 260 261 264 266 267
236 251 263 273 278 278 278 279 284 282 283 284 289 287 288 296 295 290 289 289 289 288 279 274 272 276 276 262 253 255 253 250 252 250 248 248 249 248 248 250 252 253 255 256 258 260 261 265 267
258 265 269 272 273 276 280 281 281 282 283 286 291 291 299 311 299 284 287 297 309 305 298 287 271 276 266 255 248 248 249 247 245 244 246 247 245 244 246 249 250 251 253 255 256 257 257 261 265
262 265 270 275 274 274 270 282 298 306 310 306 309 325 332 328 298 291 310 299 312 312 317 301 270 266 257 252 249 247 244 245 247 246 244 244 245 244 243 245 249 252 253 254 254 255 255 257 260
251 252 258 265 268 271 276 24 342 328 314 326 323 353 353 348 330 331 329 292 299 315 319 343 264 242 243 242 244 246 248 245 243 245 248 246 240 239 243 244 246 249 253 252 253 254 253 254 257
227 238 244 274 277 263 296 291 349 1 352 342 351 7 23 18 352 0 3 350 326 335 358 10 13 279 246 246 240 244 252 244 239 242 248 243 237 237 240 240 242 245 249 253 252 256 257 260 263
162 162 163 297 321 236 274 341 359 20 44 29 39 40 34 24 19 5 5 9 9 8 9 11 15 34 41 210 237 246 245 228 231 240 235 230 231 232 235 239 243 243 247 249 254 257 260 261 269
134 145 197 48 47 38 44 55 50 47 30 23 28 29 24 24 27 21 6 355 354 359 8 5 12 15 19 33 52 67 213 223 223 228 227 228 230 231 231 236 242 241 241 246 249 253 235 263 264
Height
5820 5824 5827 5829 5834 5835 5838 5840 5843 5845 5847 5851 5852 5854 5854 5855 5860 5862 5863 5864 5865 5866 5867 5867 5869 5869 5870 5870 5871 5874 5875 5877 5878 5879 5880 5880 5881 5882 5882 5882 5882 5883 5883 5883 5883 5882 5882 5883 5882
5814 5818 5820 5823 5827 5830 5834 5829 5838 5841 5845 5846 5848 5849 5849 5855 5856 5858 5859 5861 5862 5864 5865 5866 5867 5868 5868 5868 5868 5870 5871 5874 5875 5876 5877 5878 5879 5880 5880 5881 5881 5881 5881 5882 5882 5882 5882 5882 5882
5807 5810 5814 5817 5821 5825 5824 5824 5831 5839 5840 5841 5844 5845 5846 5852 5851 5853 5855 5857 5859 5861 5862 5863 5865 5866 5867 5866 5866 5867 5867 5869 5870 5872 5874 5875 5876 5877 5878 5879 5879 5879 5880 5880 5880 5881 5881 5881 5880
5800 5805 5809 5812 5817 5816 5818 5820 5829 5833 5834 5837 5839 5840 5844 5845 5848 5849 5850 5853 5855 5857 5859 5860 5862 5863 5864 5865 5865 5865 5866 5867 5867 5868 5868 5870 5872 5874 5875 5876 5877 5878 5878 5878 5879 5879 5879 5879 5879
5793 5798 5801 5806 5810 5807 5813 5818 5821 5825 5829 5832 5833 5837 5839 5841 5844 5845 5845 5848 5850 5853 5854 5855 5858 5860 5861 5862 5863 5863 5863 5864 5865 5866 5866 5866 5867 5869 5871 5872 5874 5875 5876 5876 5876 5876 5877 5877 5877
5788 5792 5796 5801 5802 5801 5810 5812 5814 5818 5823 5827 5828 5832 5835 5836 5838 5840 5841 5842 5844 5847 5850 5850 5853 5855 5857 5859 5859 5860 5861 5861 5861 5863 5864 5864 5864 5865 5866 5867 5868 5871 5873 5873 5873 5874 5874 5874 5874
5783 5787 5790 5792 5792 5800 5804 5808 5809 5812 5816 5820 5824 5824 5829 5830 5833 5834 5835 5836 5838 5841 5843 5846 5848 5849 5852 5854 5854 5855 5856 5858 5858 5858 5859 5860 5861 5862 5862 5863 5864 5865 5868 5870 5870 5870 5871 5871 5871
5780 5783 5786 5789 5790 5795 5800 5802 5805 5807 5810 5815 5816 5817 5823 5827 5826 5829 5831 5832 5832 5834 5837 5839 5841 5843 5845 5848 5849 5851 5852 5853 5854 5855 5855 5855 5856 5858 5859 5859 5860 5861 5863 5865 5866 5867 5867 5868 5868
5775 5779 5782 5784 5787 5793 5794 5797 5799 5802 5805 5807 5810 5812 5817 5820 5820 5824 5825 5826 5827 5828 5830 5832 5834 5836 5838 5840 5842 5845 5846 5848 5849 5849 5850 5852 5851 5852 5853 5854 5855 5856 5858 5860 5861 5862 5862 5863 5864
5773 5776 5779 5784 5786 5789 5792 5795 5797 5800 5800 5802 5805 5806 5810 5813 5816 5816 5818 5820 5821 5823 5824 5826 5827 5829 5831 5833 5835 5836 5839 5842 5843 5844 5845 5846 5847 5847 5848 5848 5850 5852 5852 5854 5855 5856 5858 5858 5859
5768 5771 5777 5780 5782 5786 5789 5791 5794 5796 5796 5800 5802 5804 5805 5807 5810 5811 5812 5814 5815 5816 5817 5818 5820 5821 5823 5825 5827 5830 5831 5834 5836 5837 5839 5840 5841 5842 5842 5844 5845 5846 5847 5847 5849 5850 5851 5852 5853
5763 5767 5771 5775 5778 5781 5784 5787 5790 5791 5793 5797 5798 5800 5800 5802 5803 5805 5806 5807 5809 5810 5810 5811 5812 5814 5815 5817 5819 5821 5824 5826 5828 5830 5831 5834 5835 5837 5837 5837 5840 5841 5841 5843 5843 5843 5844 5845 5847
5758 5762 5766 5770 5773 5776 5779 5782 5784 5785 5788 5789 5792 5794 5795 5796 5797 5798 5799 5800 5801 5803 5803 5804 5806 5807 5807 5809 5810 5812 5814 5817 5819 5822 5824 5825 5827 5829 5831 5831 5833 5835 5836 5837 5837 5837 5837 5838 5839
5754 5757 5760 5764 5768 5771 5774 5776 5778 5778 5781 5783 5785 5787 5789 5790 5790 5792 5792 5794 5795 5795 5795 5796 5798 5799 5800 5801 5802 5803 5805 5808 5809 5812 5814 5816 5817 5819 5821 5825 5827 5828 5829 5830 5831 5831 5832 5832 5832
5748 5753 5755 5759 5762 5765 5768 5770 5771 5773 5773 5776 5778 5780 5782 5783 5784 5784 5785 5786 5786 5787 5788 5788 5789 5790 5791 5792 5794 5794 5796 5797 5800 5801 5803 5805 5808 5810 5811 5815 5818 5820 5821 5823 5824 5824 5824 5824 5825
5742 5746 5749 5754 5756 5759 5762 5766 5764 5766 5766 5768 5770 5771 5773 5775 5776 5776 5776 5777 5777 5777 5777 5777 5778 5779 5780 5782 5783 5784 5785 5787 5789 5792 5793 5794 5797 5801 5802 5804 5808 5810 5813 5814 5816 5817 5817 5817 5817
5737 5741 5744 5747 5749 5752 5755 5759 5757 5758 5760 5761 5761 5763 5764 5766 5766 5766 5766 5765 5765 5764 5765 5764 5764 5766 5768 5769 5771 5773 5775 5776 5778 5781 5784 5785 5787 5789 5793 5796 5798 5800 5802 5805 5807 5808 5809 5809 5810
5731 5735 5739 5739 5746 5745 5747 5750 5751 5751 5752 5754 5754 5754 5754 5754 5754 5754 5753 5752 5751 5750 5750 5750 5749 5750 5751 5754 5756 5759 5763 5764 5766 5770 5774 5776 5777 5779 5781 5784 5787 5790 5791 5794 5796 5797 5800 5801 5802
5725 5729 5730 5733 5736 5739 5740 5742 5745 5745 5746 5745 5745 5744 5743 5742 5741 5740 5740 5739 5736 5735 5735 5734 5734 5733 5733 5736 5740 5743 5748 5751 5752 5755 5760 5764 5766 5768 5770 5773 5777 5777 5779 5782 5785 5787 5789 5791 5792
5720 5722 5725 5728 5730 5730 5732 5736 5736 5737 5736 5735 5735 5732 5732 5730 5729 5726 5725 5723 5720 5720 5718 5718 5717 5717 5717 5719 5721 5724 5729 5735 5737 5741 5745 5748 5753 5755 5757 5760 5763 5766 5768 5769 5773 5776 5778 5781 5782
5716 5718 5721 5722 5724 5723 5727 5727 5728 5728 5725 5725 5724 5722 5721 5718 5716 5712 5708 5705 5701 5699 5698 5697 5695 5694 5694 5698 5701 5705 5709 5717 5722 5726 5730 5735 5739 5742 5743 5747 5750 5754 5756 5758 5760 5763 5767 5770 5771
5714 5715 5717 5718 5719 5720 5719 5721 5721 5719 5718 5717 5715 5711 5709 5704 5700 5696 5692 5689 5685 5680 5675 5672 5670 5668 5668 5670 5675 5681 5688 5696 5704 5707 5713 5718 5721 5725 5729 5736 5737 5740 5743 5747 5749 5751 5754 5757 5760
5711 5712 5713 5713 5714 5714 5714 5713 5714 5712 5707 5704 5703 5700 5697 5694 5691 5686 5682 5676 5669 5663 5659 5657 5654 5651 5649 5648 5653 5658 5667 5676 5682 5690 5695 5700 5704 5709 5715 5721 5723 5727 5731 5735 5737 5740 5743 5746 5749
5707 5708 5709 5709 5708 5708 5708 5706 5708 5703 5701 5698 5696 5693 5690 5687 5682 5676 5668 5662 5656 5647 5640 5638 5636 5633 5632 5632 5638 5644 5653 5660 5667 5674 5676 5683 5688 5696 5702 5705 5709 5714 5719 5722 5725 5728 5732 5734 5737
5704 5704 5703 5704 5702 5701 5702 5701 5701 5699 5697 5694 5691 5688 5686 5680 5673 5666 5660 5654 5645 5635 5628 5624 5620 5620 5619 5621 5628 5633 5638 5645 5652 5658 5663 5669 5676 5683 5689 5691 5698 5704 5708 5712 5714 5717 5720 5723 5726
5700 5700 5700 5698 5698 5698 5698 5699 5697 5695 5693 5691 5688 5685 5680 5673 5666 5660 5653 5647 5640 5631 5622 5610 5608 5609 5610 5612 5618 5622 5627 5633 5640 5646 5651 5658 5665 5672 5674 5679 5687 5692 5696 5700 5703 5706 5708 5711 5714
5697 5698 5698 5697 5696 5696 5697 5696 5695 5693 5691 5688 5686 5680 5674 5666 5661 5655 5646 5641 5636 5628 5616 5606 5600 5601 5603 5605 5609 5613 5618 5625 5630 5637 5641 5646 5652 5658 5663 5670 5677 5682 5684 5689 5692 5696 5698 5700 5702
5696 5697 5697 5696 5696 5696 5696 5695 5694 5693 5690 5687 5682 5676 5669 5663 5658 5653 5646 5638 5634 5627 5617 5607 5598 5595 5598 5602 5605 5607 5611 5615 5621 5627 5631 5635 5641 5648 5655 5660 5665 5670 5675 5679 5682 5686 5688 5690 5693
5696 5696 5697 5697 5696 5695 5694 5695 5693 5692 5689 5685 5680 5670 5667 5663 5658 5654 5648 5642 5636 5628 5620 5611 5605 5601 5599 5599 5603 5605 5608 5612 5616 5621 5625 5629 5634 5641 5647 5653 5659 5663 5668 5672 5675 5679 5681 5682 5683
5698 5698 5698 5698 5697 5695 5694 5695 5692 5690 5688 5683 5676 5670 5668 5665 5660 5654 5648 5642 5637 5631 5625 5618 5613 5610 5608 5606 5607 5609 5611 5613 5617 5620 5623 5628 5632 5638 5643 5647 5652 5656 5661 5665 5667 5670 5672 5675 5674